Location: Betra
(48.4113°N, 8.6634°E)
Time: 05:19:54
(UTC+00:00)

SAR-Lupe-4 - Pass Details

Date: 05 August 2024
Orbit: 473 x 479 km, 98.1° (Epoch: 30 August)

Event Time Altitude Azimuth Distance (km) Brightness Sun altitude
Rises 02:00:32 0° 26° (NNE) 2,540 8.8 -16.8°
Reaches altitude 10° 02:02:55 10° 42° (NE) 1,656 7.6 -16.5°
Maximum altitude 02:05:47 22° 95° (E) 1,077 5.7 -16.2°
Drops below altitude 10° 02:08:37 10° 149° (SSE) 1,647 6.1 -15.9°
Enters shadow 02:09:02 - 153° (SSE) 1,792 6.2 -15.9°
